Weather History for Omaha Offutt, NE

Change the Weather History Date:

Thursday, October 31, 2013

  Actual Average Record
Temperature  
Mean Temperature 46 °F -  
Max Temperature 57 °F 54 °F 75 °F (2000)
Min Temperature 35 °F 36 °F 21 °F (2006)
Degree Days  
Heating Degree Days 19    
Moisture  
Dew Point 40 °F    
Average Humidity 91    
Maximum Humidity 100    
Minimum Humidity 56    
Precipitation  
Precipitation 0.00 in - - ()
Sea Level Pressure  
Sea Level Pressure 29.65 in    
Wind  
Wind Speed 5 mph (WNW)    
Max Wind Speed 15 mph    
Max Gust Speed -    
Visibility 10 miles    
Events      
Averages and records for this station are not official NWS values.
T = Trace of Precipitation, MM = Missing Value Source: NWS Daily Summary

Daily Weather History Graph

Daily Weather History Graph

Search for Another Location

Airport:

Trip Planner

Search our weather history database for the weather conditions in past years. The results will help you decide how hot, cold, wet, or windy it might be!

Date:

Astronomy

Oct. 31, 2013 Rise Set
Actual Time 7:53 AM CDT 6:20 PM CDT
Civil Twilight 7:25 AM CDT 6:48 PM CDT
Nautical Twilight 6:52 AM CDT 7:21 PM CDT
Astronomical Twilight 6:20 AM CDT 7:53 PM CDT
Moon 4:42 AM CDT (10/31) 4:40 PM CDT (10/31)
Length of Visible Light 11h 23m
Length of Day
10h 26m
Waning Crescent, 10% of the Moon is Illuminated
Oct 31
Waning Crescent
Nov 3
New
Nov 9
First Quarter
Nov 17
Full
Nov 25
Last Quarter

Hourly Weather History & Observations

Time (CDT) Temp. Windchill Dew Point Humidity Pressure Visibility Wind Dir Wind Speed Gust Speed Precip Events Conditions
12:18 AM 42.8 °F 37.0 °F 42.8 °F 100% 29.76 in 10.0 mi NW 10.4 mph - N/A   Overcast
12:58 AM 43.5 °F 40.1 °F 43.2 °F 99% 29.77 in 10.0 mi NNW 5.8 mph - N/A   Overcast
1:28 AM 42.8 °F 39.3 °F 41.0 °F 93% 29.73 in 10.0 mi NNW 5.8 mph - N/A   Scattered Clouds
1:58 AM 39.9 °F 37.8 °F 39.7 °F 99% 29.72 in 10.0 mi NNW 3.5 mph - N/A   Clear
2:58 AM 38.3 °F - 38.1 °F 99% 29.73 in 10.0 mi WNW 2.3 mph - N/A   Partly Cloudy
3:18 AM 35.6 °F - 35.6 °F 100% 29.70 in 9.0 mi Calm Calm - N/A   Scattered Clouds
3:43 AM 39.2 °F - 39.2 °F 100% 29.71 in 10.0 mi East 2.3 mph - N/A   Partly Cloudy
3:58 AM 39.0 °F - 39.0 °F 100% 29.72 in 10.0 mi NE 2.3 mph - N/A   Clear
4:38 AM 37.4 °F 34.9 °F 37.4 °F 100% 29.68 in 8.0 mi NW 3.5 mph - N/A   Clear
4:58 AM 38.3 °F - 38.3 °F 100% 29.70 in 8.0 mi NNW 2.3 mph - N/A   Clear
5:43 AM 39.2 °F 35.9 °F 39.2 °F 100% 29.67 in 10.0 mi NW 4.6 mph - N/A   Clear
5:58 AM 38.8 °F 34.6 °F 38.8 °F 100% 29.69 in 9.0 mi WNW 5.8 mph - N/A   Clear
6:13 AM 39.2 °F 37.0 °F 39.2 °F 100% 29.68 in 10.0 mi West 3.5 mph - N/A   Clear
6:58 AM 39.9 °F 36.7 °F 39.9 °F 100% 29.72 in 10.0 mi WSW 4.6 mph - N/A   Clear
7:58 AM 39.7 °F 34.9 °F 39.6 °F 99% 29.70 in 10.0 mi West 6.9 mph - N/A   Clear
8:58 AM 39.9 °F 36.7 °F 39.7 °F 99% 29.70 in 10.0 mi West 4.6 mph - N/A   Clear
9:58 AM 40.8 °F 37.8 °F 40.5 °F 99% 29.68 in 10.0 mi SW 4.6 mph - N/A   Clear
10:58 AM 42.8 °F - 42.4 °F 99% 29.65 in 10.0 mi WNW 2.3 mph - N/A   Clear
11:58 AM 45.5 °F - 44.2 °F 95% 29.63 in 10.0 mi West 2.3 mph - N/A   Clear
12:58 PM 47.7 °F - 44.4 °F 89% 29.60 in 10.0 mi Variable 1.2 mph - N/A   Partly Cloudy
1:58 PM 50.7 °F - 46.4 °F 85% 29.55 in 10.0 mi WSW 5.8 mph - N/A   Clear
2:58 PM 53.6 °F - 47.7 °F 80% 29.54 in 10.0 mi West 5.8 mph - N/A   Scattered Clouds
3:58 PM 57.2 °F - 44.4 °F 62% 29.52 in 10.0 mi West 9.2 mph - N/A   Partly Cloudy
4:58 PM 56.7 °F - 41.2 °F 56% 29.53 in 10.0 mi West 15.0 mph - N/A   Scattered Clouds
5:58 PM 55.2 °F - 41.2 °F 59% 29.53 in 10.0 mi WNW 6.9 mph - N/A   Mostly Cloudy
6:58 PM 52.0 °F - 37.6 °F 58% 29.55 in 10.0 mi WNW 12.7 mph - N/A   Partly Cloudy
7:58 PM 44.1 °F 42.5 °F 37.2 °F 77% 29.57 in 10.0 mi WNW 3.5 mph - N/A   Clear
8:58 PM 40.5 °F - 37.2 °F 88% 29.58 in 10.0 mi WNW 2.3 mph - N/A   Clear
9:58 PM 40.6 °F 38.6 °F 37.4 °F 88% 29.60 in 10.0 mi NW 3.5 mph - N/A   Clear
10:58 PM 37.4 °F 32.8 °F 36.7 °F 97% 29.61 in 10.0 mi WNW 5.8 mph - N/A   Clear
11:58 PM 39.7 °F 34.9 °F 37.8 °F 93% 29.63 in 10.0 mi WNW 6.9 mph - N/A   Clear